User: anonymous   Login
Location: Unspecified
(0.0000°N, 0.0000°E)
Time: 17:00:27
(UTC+00:00)
Language:

Vela 3B - Orbit

View from above orbital plane
View from above orbital plane
View from above satellite
View from above satellite

Ground track
Ground track

The orbit data is extracted from the following two-line orbital elements,

1  1459U 65058B   21286.88264339 -.00001296  00000-0  00000+0 0  9993
2  1459  36.2899  33.6061 4565368  16.4516 358.4654  0.21353852 44380
Epoch (UTC): 13 October 2021 21:11:00
Eccentricity: 0.4565368
inclination: 36.2899°
perigee height: 57878 km
apogee height: 165835 km
right ascension of ascending node: 33.6061°
argument of perigee: 16.4516°
revolutions per day: 0.21353852
mean anomaly at epoch: 358.4654°
orbit number at epoch: 4438

The dashed part of the orbit path shows where the satellite is in the earth's shadow,  

DLR